Location: Esterri de Aneo
(42.6284°N, 1.1223°E)
Time: 13:54:43
(UTC+00:00)

QB50P2 - Visible Passes

Search period start: 11 April 2026 00:00
Search period end: 21 April 2026 00:00
Orbit: 517 x 529 km, 98.1° (Epoch: 11 April)

Date Brightness Start Highest point End Pass type
(mag) Time Alt. Az. Time Alt. Az. Time Alt. Az.
12 Apr ? 04:40:49 10° NE 04:44:09 29° E 04:47:29 10° SSE visible
13 Apr ? 04:28:36 10° NE 04:31:30 21° E 04:34:24 10° SE visible
14 Apr ? 04:16:36 10° ENE 04:18:48 15° E 04:21:00 10° SE visible
15 Apr ? 04:05:28 10° E 04:06:05 10° E 04:06:41 10° E visible
20 Apr ? 04:34:10 10° NE 04:37:14 23° E 04:40:17 10° SSE visible
